Back to catalog

GALILEO-FM2

AliveNavigationMEO
NORAD 37847·PAYLOAD·🇪🇺 EU

Launched Oct 21, 2011 from Guiana Space Centre

Loading…

Next Passes (next 24 hours)

TLE

FreshSource: CelesTrak SupGP

Epoch: Sep 13, 2026, 23:59 UTC

1 37847C 11060B   26256.99979167  .00000000  00000+0  00000+0 0  2569
2 37847  56.9588 339.3532 0002200 312.3146  87.5696  1.70476249    16

Track GALILEO-FM2 in real time with AllMySat

Download on the App Store